When you browse on this site, cookies collect data to enhance your experience and personalize the content and advertising you see.
Visit our Privacy Policy to learn more. By continuing to use the site, you agree to this use of cookies and data.
  • en France
  • Liste des pays
  • À 7 jours
  • Température de l'eau
  • Carte satellitaire
  • Carte météo
  • Widgets météo
  • user-avatar
    Se connecter

    Météo par heure à Río Galyegos

    Ce jour, 19 Janvier, Samedi

    Heure Température Précipitation Vent Pression Humidité
    00:00 +19°C° 0 mm 5 m/s 752 mmHg 58%
    01:00 +19°C° 0 mm 4 m/s 751 mmHg 60%
    02:00 +19°C° 0 mm 4 m/s 750 mmHg 59%
    03:00 +19°C° 0 mm 3 m/s 749 mmHg 59%
    04:00 +18°C° 0 mm 3 m/s 749 mmHg 59%
    05:00 +19°C° 0.1 mm 3 m/s 749 mmHg 57%
    06:00 +19°C° 0.1 mm 4 m/s 748 mmHg 56%
    07:00 +20°C° 0.1 mm 4 m/s 748 mmHg 55%
    08:00 +20°C° 0 mm 7 m/s 748 mmHg 51%
    09:00 +21°C° 0 mm 9 m/s 748 mmHg 48%
    10:00 +21°C° 0 mm 11 m/s 748 mmHg 44%
    11:00 +21°C° 0 mm 11 m/s 748 mmHg 44%
    12:00 +21°C° 0 mm 11 m/s 748 mmHg 43%
    13:00 +21°C° 0 mm 11 m/s 748 mmHg 43%
    14:00 +19°C° 0 mm 11 m/s 748 mmHg 43%
    15:00 +19°C° 0 mm 11 m/s 748 mmHg 44%
    16:00 +18°C° 0 mm 11 m/s 749 mmHg 44%
    17:00 +18°C° 0 mm 10 m/s 749 mmHg 46%
    18:00 +17°C° 0 mm 9 m/s 749 mmHg 48%
    19:00 +16°C° 0 mm 9 m/s 750 mmHg 49%
    20:00 +15°C° 0.1 mm 8 m/s 750 mmHg 52%
    21:00 +14°C° 0.1 mm 7 m/s 750 mmHg 55%
    22:00 +14°C° 0.1 mm 6 m/s 751 mmHg 57%
    23:00 +13°C° 0.4 mm 5 m/s 751 mmHg 60%

    Demain, 20 Janvier, Dimanche

    Heure Température Précipitation Vent Pression Humidité
    00:00 +12°C° 0.4 mm 4 m/s 751 mmHg 64%
    01:00 +11°C° 0.4 mm 3 m/s 751 mmHg 67%
    02:00 +11°C° 0.6 mm 3 m/s 751 mmHg 67%
    03:00 +12°C° 0.6 mm 2 m/s 750 mmHg 68%
    04:00 +10°C° 0.6 mm 2 m/s 750 mmHg 69%
    05:00 +10°C° 0.8 mm 2 m/s 750 mmHg 70%
    06:00 +10°C° 0.8 mm 1 m/s 750 mmHg 72%
    07:00 +10°C° 0.8 mm 1 m/s 750 mmHg 73%
    08:00 +9°C° 1.2 mm 2 m/s 750 mmHg 75%
    09:00 +8°C° 1.2 mm 3 m/s 749 mmHg 77%
    10:00 +7°C° 1.2 mm 4 m/s 749 mmHg 78%
    11:00 +7°C° 2 mm 4 m/s 749 mmHg 80%
    12:00 +6°C° 2 mm 4 m/s 749 mmHg 83%
    13:00 +6°C° 2 mm 4 m/s 748 mmHg 85%
    14:00 +7°C° 2 mm 3 m/s 748 mmHg 86%
    15:00 +7°C° 2 mm 3 m/s 748 mmHg 87%
    16:00 +7°C° 2 mm 2 m/s 748 mmHg 88%
    17:00 +7°C° 1.6 mm 2 m/s 748 mmHg 88%
    18:00 +7°C° 1.6 mm 3 m/s 748 mmHg 88%
    19:00 +7°C° 1.6 mm 3 m/s 748 mmHg 88%
    20:00 +7°C° 0.1 mm 3 m/s 749 mmHg 85%
    21:00 +6°C° 0.1 mm 4 m/s 749 mmHg 82%
    22:00 +6°C° 0.1 mm 4 m/s 750 mmHg 79%
    23:00 +6°C° 0 mm 5 m/s 750 mmHg 79%

    Après-demain, 21 Janvier, Lundi

    Heure Température Précipitation Vent Pression Humidité
    00:00 +6°C° 0 mm 5 m/s 750 mmHg 78%
    01:00 +5°C° 0 mm 6 m/s 749 mmHg 77%
    02:00 +6°C° 0 mm 5 m/s 749 mmHg 76%
    03:00 +5°C° 0 mm 4 m/s 749 mmHg 75%
    04:00 +5°C° 0 mm 3 m/s 749 mmHg 75%
    05:00 +7°C° 0 mm 3 m/s 748 mmHg 71%
    06:00 +6°C° 0 mm 4 m/s 748 mmHg 68%
    07:00 +7°C° 0 mm 4 m/s 747 mmHg 65%
    08:00 +8°C° 0.1 mm 6 m/s 746 mmHg 63%
    09:00 +7°C° 0.1 mm 9 m/s 745 mmHg 62%
    10:00 +8°C° 0.1 mm 11 m/s 745 mmHg 60%
    11:00 +9°C° 0.1 mm 11 m/s 743 mmHg 59%
    12:00 +11°C° 0.1 mm 11 m/s 742 mmHg 57%
    13:00 +12°C° 0.1 mm 11 m/s 741 mmHg 56%
    14:00 +13°C° 0.3 mm 10 m/s 741 mmHg 50%
    15:00 +15°C° 0.3 mm 9 m/s 740 mmHg 43%
    16:00 +16°C° 0.3 mm 8 m/s 740 mmHg 37%
    17:00 +15°C° 0 mm 8 m/s 740 mmHg 40%
    18:00 +13°C° 0 mm 8 m/s 740 mmHg 42%
    19:00 +12°C° 0 mm 8 m/s 740 mmHg 45%
    20:00 +11°C° 0 mm 7 m/s 740 mmHg 47%
    21:00 +9°C° 0 mm 7 m/s 740 mmHg 49%
    22:00 +8°C° 0 mm 6 m/s 740 mmHg 51%
    23:00 +7°C° 0 mm 8 m/s 740 mmHg 52%

    22 Janvier, Mardi

    Heure Température Précipitation Vent Pression Humidité
    00:00 +7°C° 0 mm 9 m/s 739 mmHg 53%
    01:00 +7°C° 0 mm 11 m/s 739 mmHg 55%
    02:00 +7°C° 0 mm 12 m/s 739 mmHg 59%
    03:00 +5°C° 0 mm 12 m/s 739 mmHg 63%
    04:00 +5°C° 0 mm 13 m/s 740 mmHg 67%
    05:00 +6°C° 0 mm 15 m/s 740 mmHg 64%
    06:00 +7°C° 0 mm 16 m/s 741 mmHg 61%
    07:00 +7°C° 0 mm 17 m/s 741 mmHg 58%
    08:00 +9°C° 0 mm 17 m/s 742 mmHg 54%
    09:00 +10°C° 0 mm 17 m/s 742 mmHg 49%
    10:00 +11°C° 0 mm 17 m/s 743 mmHg 45%
    11:00 +11°C° 0 mm 17 m/s 744 mmHg 43%
    12:00 +11°C° 0 mm 17 m/s 745 mmHg 41%
    13:00 +13°C° 0 mm 17 m/s 746 mmHg 39%
    14:00 +11°C° 0 mm 17 m/s 747 mmHg 41%
    15:00 +10°C° 0 mm 16 m/s 747 mmHg 43%
    16:00 +9°C° 0 mm 16 m/s 748 mmHg 45%
    17:00 +9°C° 0 mm 15 m/s 749 mmHg 45%
    18:00 +8°C° 0 mm 14 m/s 750 mmHg 46%
    19:00 +7°C° 0 mm 13 m/s 751 mmHg 47%
    20:00 +7°C° 0 mm 10 m/s 751 mmHg 51%
    21:00 +7°C° 0 mm 8 m/s 751 mmHg 55%
    22:00 +8°C° 0 mm 6 m/s 752 mmHg 59%
    23:00 +7°C° 0.1 mm 5 m/s 751 mmHg 60%

    23 Janvier, Mercredi

    Heure Température Précipitation Vent Pression Humidité
    00:00 +7°C° 0.1 mm 4 m/s 751 mmHg 62%
    01:00 +7°C° 0.1 mm 4 m/s 751 mmHg 63%
    02:00 +7°C° 0.2 mm 5 m/s 750 mmHg 62%
    03:00 +8°C° 0.2 mm 7 m/s 750 mmHg 60%
    04:00 +7°C° 0.2 mm 8 m/s 750 mmHg 59%
    05:00 +8°C° 0 mm 9 m/s 749 mmHg 56%
    06:00 +10°C° 0 mm 9 m/s 748 mmHg 54%
    07:00 +11°C° 0 mm 9 m/s 748 mmHg 52%
    08:00 +12°C° 0 mm 9 m/s 747 mmHg 50%
    09:00 +13°C° 0 mm 8 m/s 746 mmHg 47%
    10:00 +16°C° 0 mm 7 m/s 746 mmHg 45%
    11:00 +17°C° 0 mm 7 m/s 745 mmHg 42%
    12:00 +19°C° 0 mm 6 m/s 744 mmHg 39%
    13:00 +20°C° 0 mm 6 m/s 743 mmHg 37%
    14:00 +21°C° 0 mm 6 m/s 743 mmHg 35%
    15:00 +22°C° 0 mm 5 m/s 742 mmHg 33%
    16:00 +23°C° 0 mm 5 m/s 741 mmHg 31%
    17:00 +22°C° 0 mm 5 m/s 740 mmHg 35%
    18:00 +21°C° 0 mm 5 m/s 740 mmHg 39%
    19:00 +21°C° 0 mm 5 m/s 739 mmHg 43%
    20:00 +20°C° 0 mm 8 m/s 738 mmHg 41%
    21:00 +18°C° 0 mm 12 m/s 737 mmHg 40%
    22:00 +18°C° 0 mm 15 m/s 736 mmHg 38%
    23:00 +17°C° 0 mm 14 m/s 736 mmHg 42%

    24 Janvier, Jeudi

    Heure Température Précipitation Vent Pression Humidité
    00:00 +15°C° 0 mm 13 m/s 736 mmHg 46%
    01:00 +14°C° 0 mm 12 m/s 736 mmHg 50%
    02:00 +12°C° 0 mm 10 m/s 736 mmHg 51%
    03:00 +11°C° 0 mm 7 m/s 736 mmHg 52%
    04:00 +9°C° 0 mm 5 m/s 736 mmHg 53%
    05:00 +10°C° 0 mm 7 m/s 736 mmHg 47%
    06:00 +11°C° 0 mm 9 m/s 736 mmHg 41%
    07:00 +12°C° 0 mm 11 m/s 736 mmHg 35%
    08:00 +13°C° 0 mm 12 m/s 736 mmHg 33%
    09:00 +13°C° 0 mm 12 m/s 735 mmHg 30%
    10:00 +14°C° 0 mm 13 m/s 735 mmHg 28%
    11:00 +14°C° 0 mm 14 m/s 734 mmHg 28%
    12:00 +14°C° 0 mm 15 m/s 734 mmHg 28%
    13:00 +14°C° 0 mm 16 m/s 733 mmHg 28%
    14:00 +14°C° 0 mm 16 m/s 734 mmHg 29%
    15:00 +14°C° 0 mm 17 m/s 734 mmHg 30%
    16:00 +14°C° 0 mm 17 m/s 734 mmHg 32%
    17:00 +13°C° 0 mm 16 m/s 735 mmHg 38%
    18:00 +11°C° 0 mm 15 m/s 735 mmHg 44%
    19:00 +9°C° 0 mm 14 m/s 736 mmHg 50%
    20:00 +8°C° 0 mm 13 m/s 737 mmHg 53%
    21:00 +8°C° 0 mm 12 m/s 738 mmHg 57%
    22:00 +7°C° 0 mm 11 m/s 738 mmHg 61%
    23:00 +5°C° 0 mm 12 m/s 739 mmHg 60%
    Voir plus